Regional Weather Roundup
Issued by NWS

Home | Current Version | Previous Version | Graphics & Text | Print | Product List | Glossary On
Versions: 1 2 3 4 5 6 7 8 9 10 11 12 13 14 15 16 17 18 19 20 21 22 23 24 25 26 27
000
ASUS45 KBOU 221406
RWRCO

WEATHER ROUNDUP FOR COLORADO
NATIONAL WEATHER SERVICE DENVER/BOULDER CO
800 AM MDT TUE APR 22 2014

NOTE: "FAIR" INDICATES FEW OR NO CLOUDS BELOW 12000 FEET WITH NO
SIGNIFICANT WEATHER AND/OR OBSTRUCTIONS TO VISIBILITY.

COZ001>005-013-030-031-221500-
...NORTHWEST COLORADO...

CITY           SKY/WX    TMP DP  RH WIND       PRES   REMARKS
CRAIG          PTSUNNY   48  32  53 E5        30.01F
HAYDEN         PTSUNNY   45  28  53 E18       30.04F
MEEKER         MOSUNNY   49  36  61 N5        30.01F
MOUNT WERNER   PTSUNNY   45  18  33 S17G28    30.23S
STEAMBOAT SPGS PTSUNNY   40  29  64 CALM      30.06F
WALDEN         CLOUDY    37  27  65 CALM      30.11F
$$

COZ006>008-011-221500-
...WEST CENTRAL VALLEYS...

CITY           SKY/WX    TMP DP  RH WIND       PRES   REMARKS
GRAND JUNCTION CLOUDY    54  31  41 E20       29.95F
MONTROSE       MOSUNNY   51  32  48 E5        30.07S
EAGLE          MOSUNNY   37  28  70 CALM      30.16F
RIFLE          MOSUNNY   47  35  63 W6        30.03F
DELTA          NOT AVBL
NUCLA          NOT AVBL
$$

COZ017>023-064>068-221500-
...SOUTHWEST COLORADO...

CITY           SKY/WX    TMP DP  RH WIND       PRES   REMARKS
DURANGO        MOSUNNY   46  30  53 N3        30.17R
CORTEZ         PTSUNNY   56  35  45 CALM      30.09S
PAGOSA SPRINGS CLOUDY    47  28  48 CALM      30.24S
TELLURIDE      PTSUNNY   52  25  35 SE14      30.21F
WOLF CREEK PAS PTSUNNY   34  27  75 SW17G25   30.39S WCI  23
$$

COZ009-010-012-014-032>034-037-058>063-221500-
...CENTRAL COLORADO...

CITY           SKY/WX    TMP DP  RH WIND       PRES   REMARKS
ASPEN          MOSUNNY   49  28  44 S8        30.13F
BUENA VISTA    SUNNY     39  31  71 CALM      30.22F
COPPER MTN     SUNNY     37  21  52 S18G24    30.35S
BERTHOUD PASS  FAIR      32  23  69 MISG      30.34S
COTTONWOOD PAS MOSUNNY   43  32  65 CALM      30.27S
GUNNISON       SUNNY     34  25  69 E3        30.26S
KREMMLING      PTSUNNY   34  28  80 CALM      30.17F
LEADVILLE      SUNNY     31  25  78 W3        30.26S
MONARCH PASS   PTSUNNY   34  23  64 SW23      30.46S WCI  22
SALIDA         SUNNY     42  32  69 N10       30.27F
SUNLIGHT       MOSUNNY   41  28  60 SW3       30.27S
WILKERSON PASS SUNNY     34  28  80 SW9G17    30.33R WCI  26
$$

COZ069>075-221500-
...SAN LUIS VALLEY/SANGRE DE CRISTO MOUNTAINS...

CITY           SKY/WX    TMP DP  RH WIND       PRES   REMARKS
ALAMOSA        MOSUNNY   44  33  65 NE5       30.23R
LA VETA PASS   PTSUNNY   39  32  75 SW14G24   30.27F
SAGUACHE       SUNNY     43  25  49 NW12      30.25S
$$

COZ035-036-038>040-221500-
...NORTHERN COLORADO FRONT RANGE...

CITY           SKY/WX    TMP DP  RH WIND       PRES   REMARKS
DENVER INTL AP PTSUNNY   56  38  50 SW13      30.01F
DMNS CITY PARK   N/A     56  35  43 SW6       30.00F
AURORA         MOSUNNY   54  37  54 S16       30.02F
FRONT RANGE AP NOT AVBL
ERIE MUNI ARPT PTSUNNY   49  42  75 CALM      30.01S
BOULDER MUN AP PTSUNNY   50  37  62 CALM      30.01S
CENTENNIAL     MOSUNNY   55  35  47 S9        30.03F
BROOMFIELD     PTSUNNY   50  37  62 CALM      30.03S
FORT COLLINS   CLOUDY    45  36  70 CALM      30.02F
LONGMONT       NOT AVBL
$$

COZ041-046-047-076>085-087-088-221500-
...PIKES PEAK/PALMER DIVIDE AND SOUTHERN FOOTHILLS...

CITY           SKY/WX    TMP DP  RH WIND       PRES   REMARKS
COLO. SPRINGS  MOSUNNY   48  40  73 CALM      30.12S
A. F. ACADEMY  SUNNY     43  36  76 VRB6      30.11F
ELLICOTT       NOT AVBL
FALCON         SUNNY     48  42  80 CALM      30.14S
FORT CARSON    SUNNY     48  37  64 N5        30.10F
LIMON          SUNNY     45  35  68 S16       30.09F
MONUMENT HILL  SUNNY     52  36  54 S13       30.10S
TRINIDAD       MOSUNNY   61  41  47 SW14      30.12S
$$

COZ042>045-048>051-090-091-221500-
...NORTHEAST COLORADO...

CITY           SKY/WX    TMP DP  RH WIND       PRES   REMARKS
GREELEY ARPT   CLOUDY    43  32  65 NW3       30.01F
AKRON          PTSUNNY   52  32  46 S21G32    30.03F
BURLINGTON     SUNNY     54  29  38 S31G39    30.09F
WRAY           SUNNY     55  31  40 S12G20    30.08F
STERLING       NOT AVBL
HOLYOKE        NOT AVBL
FORT MORGAN    NOT AVBL
$$

COZ086-089-092>099-221500-
...SOUTHEAST COLORADO...

CITY           SKY/WX    TMP DP  RH WIND       PRES   REMARKS
PUEBLO         SUNNY     49  40  71 SE5       30.08S
LA JUNTA       SUNNY     56  45  66 E6        30.06F
LAMAR          SUNNY     60  40  47 S20G28    30.08F
SPRINGFIELD      N/A     54  47  77 S17       30.14F
$$



USA.gov is the U.S. government's official web portal to all federal, state and local government web resources and services.